Surface/Precipitation History
02/08/2018 18:33  to  2/9/2018 18:33
Change End Date:
Date/Time
(MDT)
Sf
Temp Chem Water Layer Surface Precipitation
Sfc Pvt Sub Frz Factor Pct Dpth DpthThk IcePct Cond Salin FI Type Intens Accum Rate
02/09/2018 18:31 Ice Warning 3.4F - 18F 32F 5 0% - - 100% 0 mhos 1 - None None - -
02/09/2018 18:24 Ice Warning 3.9F - 18F 32F 5 0% - - 100% 0 mhos 1 - None None - -
02/09/2018 18:16 Ice Warning 4.1F - 18F 32F 5 0% - - 100% 0 mhos 1 - None None - -
02/09/2018 18:14 Ice Warning 4.1F - 18F 32F 5 0% - - 100% 0 mhos 1 - None None - -
02/09/2018 18:04 Ice Warning 4.6F - 18F 32F 5 0% - - 100% 0 mhos 1 - None None - -
02/09/2018 18:00 Ice Warning 5.0F - 18F 32F 5 0% - - 100% 0 mhos 1 - None None - -
02/09/2018 17:54 Ice Warning 5.5F - 18F 32F 5 0% - - 100% 0 mhos 1 - None None - -
02/09/2018 17:46 Ice Warning 6.4F - 18F 32F 5 0% - - 100% 0 mhos 1 - None None - -
02/09/2018 17:44 Ice Warning 6.4F - 18F 32F 5 0% - - 100% 0 mhos 1 - None None - -
02/09/2018 17:34 Ice Warning 7.2F - 18F 32F 5 0% - - 100% 0 mhos 1 - None None - -
02/09/2018 17:31 Ice Warning 7.7F - 18F 32F 5 0% - - 100% 0 mhos 1 - None None - -
02/09/2018 17:24 Ice Warning 8.4F - 18F 32F 5 0% - - 100% 0 mhos 1 - None None - -
02/09/2018 17:16 Ice Warning 9.5F - 18F 32F 5 0% - - 100% 0 mhos 1 - None None - -
02/09/2018 17:14 Ice Warning 9.7F - 18F 32F 5 0% - - 100% 0 mhos 1 - None None - -
02/09/2018 17:04 Ice Warning 10.9F - 18F 32F 5 0% - - 100% 0 mhos 1 - None None - -
Date/Time
(MDT)
Sf
Temp Chem Water Layer Surface Precipitation
Sfc Pvt Sub Frz Factor Pct Dpth DpthThk IcePct Cond Salin FI Type Intens Accum Rate
02/09/2018 17:01 Ice Warning 11.5F - 18F 32F 5 0% - - 100% 0 mhos 1 - None None - -
02/09/2018 16:54 Ice Warning 12.7F - 18F 32F 5 0% - - 100% 0 mhos 1 - None None - -
02/09/2018 16:46 Ice Warning 13.6F - 18F 32F 5 0% - - 100% 0 mhos 1 - None None - -
02/09/2018 16:44 Ice Warning 14.0F - 18F 32F 5 0% - - 100% 0 mhos 1 - None None - -
02/09/2018 16:34 Ice Warning 15.4F - 17F 32F 5 0% - - 100% 0 mhos 1 - None None - -
02/09/2018 16:30 Ice Warning 15.6F - 17F 32F 5 0% - - 100% 0 mhos 1 - None None - -
02/09/2018 16:24 Ice Warning 17.1F - 17F 32F 5 0% - - 100% 0 mhos 1 - None None - -
02/09/2018 16:16 Ice Warning 18.1F - 17F 32F 5 0% - - 100% 0 mhos 1 - None None - -
02/09/2018 16:13 Ice Warning 18.5F - 17F 32F 5 0% - - 100% 0 mhos 1 - None None - -
02/09/2018 16:03 Ice Warning 19.6F - 17F 32F 5 0% - - 100% 0 mhos 1 - None None - -
02/09/2018 16:01 Ice Warning 19.8F - 17F 32F 5 0% - - 100% 0 mhos 1 - None None - -
02/09/2018 15:53 Ice Warning 20.5F - 17F 32F 5 0% - - 100% 0 mhos 1 - None None - -
02/09/2018 15:46 Ice Warning 20.8F - 17F 32F 5 0% - - 100% 0 mhos 1 - None None - -
02/09/2018 15:43 Ice Warning 21.0F - 17F 32F 5 0% - - 100% 0 mhos 1 - None None - -
02/09/2018 15:33 Ice Warning 22.1F - 17F 32F 5 0% - - 100% 0 mhos 1 - None None - -
Date/Time
(MDT)
Sf
Temp Chem Water Layer Surface Precipitation
Sfc Pvt Sub Frz Factor Pct Dpth DpthThk IcePct Cond Salin FI Type Intens Accum Rate
02/09/2018 15:30 Ice Warning 22.1F - 17F 32F 5 0% - - 100% 0 mhos 1 - None None - -
02/09/2018 15:23 Ice Warning 22.6F - 17F 32F 5 0% - - 100% 0 mhos 1 - None None - -
02/09/2018 15:15 Ice Warning 23.0F - 17F 32F 5 0% - - 100% 0 mhos 1 - None None - -
02/09/2018 15:13 Ice Warning 23.4F - 17F 32F 5 0% - - 100% 0 mhos 1 - None None - -
02/09/2018 15:03 Ice Warning 24.4F - 17F 32F 5 0% - - 100% 0 mhos 1 - None None - -
02/09/2018 15:01 Ice Warning 25.0F - 17F 32F 5 0% - - 100% 0 mhos 1 - None None - -
02/09/2018 14:53 Ice Warning 26.1F - 17F 32F 5 0% - - 100% 0 mhos 2 - None None - -
02/09/2018 14:46 Ice Warning 26.4F - 17F 32F 15 0% - - 100% 0 mhos 2 - None None - -
02/09/2018 14:43 Ice Warning 26.8F - 17F 32F 5 0% - - 100% 0 mhos 2 - None None - -
02/09/2018 14:33 Ice Warning 27.1F - 17F 32F 5 0% - - 100% 0 mhos 2 - None None - -
02/09/2018 14:30 Ice Warning 27.0F - 17F 32F 35 0% - - 100% 0 mhos 2 - None None - -
02/09/2018 14:23 Ice Warning 26.8F - 17F 32F 20 0% - - 100% 0 mhos 2 - None None - -
02/09/2018 14:15 Ice Warning 27.1F - 17F 32F 45 0% - - 100% 0 mhos 2 - None None - -
02/09/2018 14:13 Ice Warning 26.6F - 17F 32F 40 0% - - 100% 0 mhos 2 - None None - -
02/09/2018 14:03 Ice Warning 27.1F - 17F 32F 5 0% - - 100% 0 mhos 2 - None None - -
Date/Time
(MDT)
Sf
Temp Chem Water Layer Surface Precipitation
Sfc Pvt Sub Frz Factor Pct Dpth DpthThk IcePct Cond Salin FI Type Intens Accum Rate
02/09/2018 14:00 Ice Warning 27.0F - 17F 32F 5 0% - - 100% 0 mhos 2 - None None - -
02/09/2018 13:52 Ice Warning 27.5F - 17F 32F 5 0% - - 100% 0 mhos 2 - None None - -
02/09/2018 13:45 Ice Warning 27.1F - 17F 32F 35 0% - - 100% 0 mhos 2 - None None - -
02/09/2018 13:42 Ice Warning 27.0F - 17F 32F 25 0% - - 100% 0 mhos 2 - None None - -
02/09/2018 13:32 Ice Warning 26.8F - 17F 32F 40 0% - - 100% 0 mhos 2 - None None - -
02/09/2018 13:30 Ice Warning 27.0F - 17F 32F 5 0% - - 100% 0 mhos 2 - None None - -
02/09/2018 13:22 Ice Warning 27.0F - 17F 32F 5 0% - - 100% 0 mhos 2 - None None - -
02/09/2018 13:16 Ice Warning 26.4F - 17F 32F 65 0% - - 100% 0 mhos 2 - None None - -
02/09/2018 13:12 Ice Warning 26.6F - 17F 32F 55 0% - - 100% 0 mhos 2 - None None - -
02/09/2018 13:02 Ice Warning 25.9F - 17F 32F 55 0% - - 100% 0 mhos 2 - None None - -
02/09/2018 13:00 Ice Warning 25.7F - 17F 32F 55 0% - - 100% 0 mhos 2 - None None - -
02/09/2018 12:52 Ice Warning 25.0F - 17F 32F 5 0% - - 100% 0 mhos 3 - None None - -
02/09/2018 12:46 Ice Warning 25.2F - 17F 32F 45 0% - - 100% 0 mhos 3 - None None - -
02/09/2018 12:42 Ice Warning 25.0F - 17F 32F 45 0% - - 100% 0 mhos 3 - None None - -
02/09/2018 12:32 Ice Warning 23.7F - 17F 32F 50 0% - - 100% 0 mhos 3 - None None - -
Date/Time
(MDT)
Sf
Temp Chem Water Layer Surface Precipitation
Sfc Pvt Sub Frz Factor Pct Dpth DpthThk IcePct Cond Salin FI Type Intens Accum Rate
02/09/2018 12:31 Ice Warning 23.5F - 17F 32F 50 0% - - 100% 0 mhos 3 - None None - -
02/09/2018 12:22 Ice Warning 23.2F - 18F 32F 30 0% - - 100% 0 mhos 3 - None None - -
02/09/2018 12:16 Ice Warning 23.0F - 18F 32F 30 0% - - 100% 0 mhos 3 - None None - -
02/09/2018 12:12 Ice Warning 22.6F - 17F 32F 30 0% - - 100% 0 mhos 3 - None None - -
02/09/2018 12:02 Ice Warning 22.1F - 18F 32F 30 0% - - 100% 0 mhos 3 - None None - -
02/09/2018 12:00 Ice Warning 22.3F - 18F 32F 30 0% - - 100% 0 mhos 3 - None None - -
02/09/2018 11:52 Ice Warning 22.3F - 18F 32F 15 0% - - 100% 0 mhos 3 - None None - -
02/09/2018 11:45 Ice Warning 22.1F - 18F 32F 15 0% - - 100% 0 mhos 3 - None None - -
02/09/2018 11:42 Ice Warning 21.6F - 18F 32F 15 0% - - 100% 0 mhos 3 - None None - -
02/09/2018 11:32 Ice Warning 20.7F - 18F 32F 20 0% - - 100% 0 mhos 3 - None None - -
02/09/2018 11:31 Ice Warning 20.7F - 18F 32F 20 0% - - 100% 0 mhos 3 - None None - -
02/09/2018 11:22 Ice Warning 19.6F - 18F 32F 10 0% - - 100% 0 mhos 3 - None None - -
02/09/2018 11:16 Ice Warning 18.9F - 18F 32F 10 0% - - 100% 0 mhos 3 - None None - -
02/09/2018 11:12 Ice Warning 18.5F - 18F 32F 10 0% - - 100% 0 mhos 3 - None None - -
02/09/2018 11:02 Ice Warning 17.1F - 18F 32F 10 0% - - 100% 0 mhos 2 - None None - -
Date/Time
(MDT)
Sf
Temp Chem Water Layer Surface Precipitation
Sfc Pvt Sub Frz Factor Pct Dpth DpthThk IcePct Cond Salin FI Type Intens Accum Rate
02/09/2018 11:00 Ice Warning 16.9F - 18F 32F 5 0% - - 100% 0 mhos 2 - None None - -
02/09/2018 10:52 Ice Warning 16.2F - 18F 32F 5 0% - - 100% 0 mhos 2 - None None - -
02/09/2018 10:45 Ice Warning 15.4F - 18F 32F 5 0% - - 100% 0 mhos 2 - None None - -
02/09/2018 10:42 Ice Warning 14.9F - 18F 32F 5 0% - - 100% 0 mhos 2 - None None - -
02/09/2018 10:31 Ice Warning 14.2F - 18F 32F 5 0% - - 100% 0 mhos 2 - None None - -
02/09/2018 10:31 Ice Warning 14.0F - 18F 32F 5 0% - - 100% 0 mhos 2 - None None - -
02/09/2018 10:21 Ice Warning 13.1F - 18F 32F 5 0% - - 100% 0 mhos 2 - None None - -
02/09/2018 10:16 Ice Warning 12.4F - 18F 32F 5 0% - - 100% 0 mhos 2 - None None - -
02/09/2018 10:11 Ice Warning 12.2F - 18F 32F 5 0% - - 100% 0 mhos 2 - None None - -
02/09/2018 10:01 Ice Warning 10.9F - 18F 32F 5 0% - - 100% 0 mhos 2 - None None - -
02/09/2018 10:01 Ice Warning 10.8F - 18F 32F 5 0% - - 100% 0 mhos 2 - None None - -
02/09/2018 09:51 Ice Warning 9.5F - 18F 32F 5 0% - - 100% 0 mhos 2 - None None - -
02/09/2018 09:45 Ice Warning 9.0F - 18F 32F 5 0% - - 100% 0 mhos 1 - None None - -
02/09/2018 09:41 Ice Warning 8.4F - 18F 32F 5 0% - - 100% 0 mhos 1 - None None - -
02/09/2018 09:31 Ice Warning 7.3F - 18F 32F 5 0% - - 100% 0 mhos 1 - None None - -
Date/Time
(MDT)
Sf
Temp Chem Water Layer Surface Precipitation
Sfc Pvt Sub Frz Factor Pct Dpth DpthThk IcePct Cond Salin FI Type Intens Accum Rate
02/09/2018 09:30 Ice Warning 7.2F - 18F 32F 5 0% - - 100% 0 mhos 1 - None None - -
02/09/2018 09:21 Ice Warning 6.1F - 18F 32F 5 0% - - 100% 0 mhos 1 - None None - -
02/09/2018 09:16 Ice Warning 5.5F - 18F 32F 5 0% - - 100% 0 mhos 1 - None None - -
02/09/2018 09:11 Ice Warning 5.0F - 18F 32F 5 0% - - 100% 0 mhos 1 - None None - -
02/09/2018 09:01 Ice Warning 4.3F - 18F 32F 5 0% - - 100% 0 mhos 1 - None None - -
02/09/2018 09:01 Ice Warning 4.1F - 18F 32F 5 0% - - 100% 0 mhos 1 - None None - -
02/09/2018 08:51 Ice Warning 3.7F - 18F 32F 5 0% - - 100% 0 mhos 1 - None None - -
02/09/2018 08:46 Ice Warning 3.0F - 18F 32F 5 0% - - 100% 0 mhos 1 - None None - -
02/09/2018 08:41 Ice Warning 2.8F - 18F 32F 5 0% - - 100% 0 mhos 1 - None None - -
02/09/2018 08:31 Ice Warning 1.8F - 18F 32F 5 0% - - 100% 0 mhos 1 - None None - -
02/09/2018 08:30 Ice Warning 1.8F - 18F 32F 5 0% - - 100% 0 mhos 1 - None None - -
02/09/2018 08:21 Ice Warning 1.0F - 18F 32F 5 0% - - 100% 0 mhos 1 - None None - -
02/09/2018 08:16 Ice Warning 1.0F - 18F 32F 5 0% - - 100% 0 mhos 1 - None None - -
02/09/2018 08:11 Ice Warning 0.9F - 18F 32F 5 0% - - 100% 0 mhos 1 - None None - -
02/09/2018 08:01 Ice Warning 0.9F - 18F 32F 5 0% - - 100% 0 mhos 1 - None None - -
Date/Time
(MDT)
Sf
Temp Chem Water Layer Surface Precipitation
Sfc Pvt Sub Frz Factor Pct Dpth DpthThk IcePct Cond Salin FI Type Intens Accum Rate
02/09/2018 08:00 Ice Warning 0.9F - 18F 32F 5 0% - - 100% 0 mhos 1 - None None - -
02/09/2018 07:51 Ice Warning 1.0F - 18F 32F 5 0% - - 100% 0 mhos 1 - None None - -
02/09/2018 07:45 Ice Warning 1.0F - 18F 32F 5 0% - - 100% 0 mhos 1 - None None - -
02/09/2018 07:40 Ice Warning 1.0F - 18F 32F 5 0% - - 100% 0 mhos 1 - None None - -
02/09/2018 07:30 Ice Warning 1.8F - 18F 32F 5 0% - - 100% 0 mhos 1 - None None - -
02/09/2018 07:30 Ice Warning 1.8F - 18F 32F 5 0% - - 100% 0 mhos 1 - None None - -
02/09/2018 07:20 Ice Warning 1.9F - 18F 32F 5 0% - - 100% 0 mhos 1 - None None - -
02/09/2018 07:16 Ice Warning 2.3F - 18F 32F 5 0% - - 100% 0 mhos 1 - None None - -
02/09/2018 07:10 Ice Warning 2.5F - 18F 32F 5 0% - - 100% 0 mhos 1 - Yes - - -
02/09/2018 07:01 Ice Warning 2.7F - 18F 32F 5 0% - - 100% 0 mhos 1 - None None - -
02/09/2018 07:00 Ice Warning 2.7F - 18F 32F 5 0% - - 100% 0 mhos 1 - None None - -
02/09/2018 06:50 Ice Warning 2.7F - 18F 32F 5 0% - - 100% 0 mhos 1 - None None - -
02/09/2018 06:45 Ice Warning 2.7F - 18F 32F 5 0% - - 100% 0 mhos 1 - None None - -
02/09/2018 06:40 Ice Warning 2.7F - 18F 32F 5 0% - - 100% 0 mhos 1 - None None - -
02/09/2018 06:31 Ice Warning 2.7F - 18F 32F 5 0% - - 100% 0 mhos 1 - None None - -
Date/Time
(MDT)
Sf
Temp Chem Water Layer Surface Precipitation
Sfc Pvt Sub Frz Factor Pct Dpth DpthThk IcePct Cond Salin FI Type Intens Accum Rate
02/09/2018 06:30 Ice Warning 2.7F - 18F 32F 5 0% - - 100% 0 mhos 1 - None None - -
02/09/2018 06:20 Ice Warning 2.7F - 19F 32F 5 0% - - 100% 0 mhos 1 - None None - -
02/09/2018 06:15 Ice Warning 2.7F - 19F 32F 5 0% - - 100% 0 mhos 1 - None None - -
02/09/2018 06:10 Ice Warning 2.5F - 19F 32F 5 0% - - 100% 0 mhos 1 - None None - -
02/09/2018 06:01 Ice Warning 2.3F - 19F 32F 5 0% - - 100% 0 mhos 1 - None None - -
02/09/2018 06:00 Ice Warning 2.3F - 19F 32F 5 0% - - 100% 0 mhos 1 - None None - -
02/09/2018 05:50 Ice Warning 2.3F - 19F 32F 5 0% - - 100% 0 mhos 1 - None None - -
02/09/2018 05:46 Ice Warning 2.3F - 19F 32F 5 0% - - 100% 0 mhos 1 - Yes - - -
02/09/2018 05:40 Ice Warning 2.3F - 19F 32F 5 0% - - 100% 0 mhos 1 - None None - -
02/09/2018 05:31 Ice Warning 1.9F - 19F 32F 5 0% - - 100% 0 mhos 1 - None None - -
02/09/2018 05:30 Ice Warning 1.9F - 19F 32F 5 0% - - 100% 0 mhos 1 - None None - -
02/09/2018 05:20 Ice Warning 1.9F - 19F 32F 5 0% - - 100% 0 mhos 1 - None None - -
02/09/2018 05:15 Ice Warning 1.9F - 19F 32F 5 0% - - 100% 0 mhos 1 - None None - -
02/09/2018 05:10 Ice Warning 2.1F - 19F 32F 5 0% - - 100% 0 mhos 1 - None None - -
02/09/2018 05:00 Ice Warning 2.1F - 19F 32F 5 0% - - 100% 0 mhos 1 - None None - -
Date/Time
(MDT)
Sf
Temp Chem Water Layer Surface Precipitation
Sfc Pvt Sub Frz Factor Pct Dpth DpthThk IcePct Cond Salin FI Type Intens Accum Rate
02/09/2018 04:59 Ice Warning 2.1F - 19F 32F 5 0% - - 100% 0 mhos 1 - None None - -
02/09/2018 04:49 Ice Warning 2.1F - 19F 32F 5 0% - - 100% 0 mhos 1 - None None - -
02/09/2018 04:46 Ice Warning 2.1F - 19F 32F 5 0% - - 100% 0 mhos 1 - None None - -
02/09/2018 04:39 Ice Warning 2.3F - 19F 32F 5 0% - - 100% 0 mhos 1 - None None - -
02/09/2018 04:31 Ice Warning 2.3F - 19F 32F 5 0% - - 100% 0 mhos 1 - None None - -
02/09/2018 04:29 Ice Warning 2.3F - 19F 32F 5 0% - - 100% 0 mhos 1 - None None - -
02/09/2018 04:19 Ice Warning 2.3F - 19F 32F 5 0% - - 100% 0 mhos 1 - None None - -
02/09/2018 04:15 Ice Warning 2.5F - 19F 32F 5 0% - - 100% 0 mhos 1 - None None - -
02/09/2018 04:09 Ice Warning 2.7F - 19F 32F 5 0% - - 100% 0 mhos 1 - Yes - - -
02/09/2018 04:00 Ice Warning 3.0F - 19F 32F 5 0% - - 100% 0 mhos 1 - None None - -
02/09/2018 03:59 Ice Warning 3.0F - 19F 32F 5 0% - - 100% 0 mhos 1 - Yes - - -
02/09/2018 03:49 Ice Warning 3.4F - 19F 32F 5 0% - - 100% 0 mhos 1 - Yes - - -
02/09/2018 03:46 Ice Warning 3.6F - 19F 32F 5 0% - - 100% 0 mhos 1 - Yes - - -
02/09/2018 03:39 Ice Warning 3.7F - 19F 32F 5 0% - - 100% 0 mhos 1 - Yes - - -
02/09/2018 03:31 Ice Warning 3.9F - 19F 32F 5 0% - - 100% 0 mhos 1 - Yes - - -
Date/Time
(MDT)
Sf
Temp Chem Water Layer Surface Precipitation
Sfc Pvt Sub Frz Factor Pct Dpth DpthThk IcePct Cond Salin FI Type Intens Accum Rate
02/09/2018 03:29 Ice Warning 3.7F - 19F 32F 5 0% - - 100% 0 mhos 1 - Yes - - -
02/09/2018 03:19 Ice Warning 3.9F - 19F 32F 5 0% - - 100% 0 mhos 1 - Yes - - -
02/09/2018 03:15 Ice Warning 3.9F - 19F 32F 5 0% - - 100% 0 mhos 1 - Yes - - -
02/09/2018 03:09 Ice Warning 3.7F - 19F 32F 5 0% - - 100% 0 mhos 1 - Yes - - -
02/09/2018 03:01 Ice Warning 3.9F - 19F 32F 5 0% - - 100% 0 mhos 1 - Yes - - -
02/09/2018 02:59 Ice Warning 3.9F - 19F 32F 5 0% - - 100% 0 mhos 1 - None None - -
02/09/2018 02:49 Ice Warning 3.9F - 19F 32F 5 0% - - 100% 0 mhos 1 - None None - -
02/09/2018 02:45 Ice Warning 3.9F - 19F 32F 5 0% - - 100% 0 mhos 1 - Yes - - -
02/09/2018 02:39 Ice Warning 3.9F - 19F 32F 5 0% - - 100% 0 mhos 1 - Yes - - -
02/09/2018 02:31 Ice Warning 3.9F - 19F 32F 5 0% - - 100% 0 mhos 1 - Yes - - -
02/09/2018 02:29 Ice Warning 3.7F - 19F 32F 5 0% - - 100% 0 mhos 1 - Yes - - -
02/09/2018 02:19 Ice Warning 3.7F - 19F 32F 5 0% - - 100% 0 mhos 1 - Yes - - -
02/09/2018 02:15 Ice Warning 3.6F - 19F 32F 5 0% - - 100% 0 mhos 1 - Yes - - -
02/09/2018 02:09 Ice Warning 3.4F - 19F 32F 5 0% - - 100% 0 mhos 1 - None None - -
02/09/2018 02:01 Ice Warning 3.2F - 19F 32F 5 0% - - 100% 0 mhos 1 - None None - -
Date/Time
(MDT)
Sf
Temp Chem Water Layer Surface Precipitation
Sfc Pvt Sub Frz Factor Pct Dpth DpthThk IcePct Cond Salin FI Type Intens Accum Rate
02/09/2018 01:58 Ice Warning 3.0F - 19F 32F 5 0% - - 100% 0 mhos 1 - None None - -
02/09/2018 01:48 Ice Warning 2.8F - 19F 32F 5 0% - - 100% 0 mhos 1 - None None - -
02/09/2018 01:45 Ice Warning 2.8F - 19F 32F 5 0% - - 100% 0 mhos 1 - None None - -
02/09/2018 01:38 Ice Warning 2.8F - 19F 32F 5 0% - - 100% 0 mhos 1 - None None - -
02/09/2018 01:30 Ice Warning 2.7F - 19F 32F 5 0% - - 100% 0 mhos 1 - None None - -
02/09/2018 01:28 Ice Warning 2.7F - 19F 32F 5 0% - - 100% 0 mhos 1 - None None - -
02/09/2018 01:18 Ice Warning 2.7F - 19F 32F 5 0% - - 100% 0 mhos 1 - None None - -
02/09/2018 01:16 Ice Warning 2.7F - 19F 32F 5 0% - - 100% 0 mhos 1 - None None - -
02/09/2018 01:08 Ice Warning 2.5F - 19F 32F 5 0% - - 100% 0 mhos 1 - None None - -
02/09/2018 01:01 Ice Warning 2.5F - 19F 32F 5 0% - - 100% 0 mhos 1 - None None - -
02/09/2018 00:58 Ice Warning 2.5F - 20F 32F 5 0% - - 100% 0 mhos 1 - None None - -
02/09/2018 00:48 Ice Warning 2.3F - 20F 32F 5 0% - - 100% 0 mhos 1 - None None - -
02/09/2018 00:45 Ice Warning 2.5F - 20F 32F 5 0% - - 100% 0 mhos 1 - None None - -
02/09/2018 00:38 Ice Warning 2.5F - 20F 32F 5 0% - - 100% 0 mhos 1 - None None - -
02/09/2018 00:30 Ice Warning 2.5F - 20F 32F 5 0% - - 100% 0 mhos 1 - None None - -
Date/Time
(MDT)
Sf
Temp Chem Water Layer Surface Precipitation
Sfc Pvt Sub Frz Factor Pct Dpth DpthThk IcePct Cond Salin FI Type Intens Accum Rate
02/09/2018 00:28 Ice Warning 2.3F - 20F 32F 5 0% - - 100% 0 mhos 1 - None None - -
02/09/2018 00:18 Ice Warning 2.3F - 20F 32F 5 0% - - 100% 0 mhos 1 - None None - -
02/09/2018 00:16 Ice Warning 2.1F - 20F 32F 5 0% - - 100% 0 mhos 1 - None None - -
02/09/2018 00:08 Ice Warning 2.1F - 20F 32F 5 0% - - 100% 0 mhos 1 - None None - -
02/09/2018 00:01 Ice Warning 1.9F - 20F 32F 5 0% - - 100% 0 mhos 1 - None None - -
02/08/2018 23:58 Ice Warning 1.8F - 20F 32F 5 0% - - 100% 0 mhos 1 - None None - -
02/08/2018 23:48 Ice Warning 1.8F - 20F 32F 5 0% - - 100% 0 mhos 1 - None None - -
02/08/2018 23:45 Ice Warning 1.8F - 20F 32F 5 0% - - 100% 0 mhos 1 - None None - -
02/08/2018 23:38 Ice Warning 1.8F - 20F 32F 5 0% - - 100% 0 mhos 1 - None None - -
02/08/2018 23:31 Ice Warning 1.8F - 20F 32F 5 0% - - 100% 0 mhos 1 - None None - -
02/08/2018 23:28 Ice Warning 1.8F - 20F 32F 5 0% - - 100% 0 mhos 1 - None None - -
02/08/2018 23:18 Ice Warning 1.8F - 20F 32F 5 0% - - 100% 0 mhos 1 - None None - -
02/08/2018 23:15 Ice Warning 1.8F - 20F 32F 5 0% - - 100% 0 mhos 1 - None None - -
02/08/2018 23:07 Ice Warning 1.9F - 20F 32F 5 0% - - 100% 0 mhos 1 - None None - -
02/08/2018 23:01 Ice Warning 2.5F - 20F 32F 5 0% - - 100% 0 mhos 1 - None None - -
Date/Time
(MDT)
Sf
Temp Chem Water Layer Surface Precipitation
Sfc Pvt Sub Frz Factor Pct Dpth DpthThk IcePct Cond Salin FI Type Intens Accum Rate
02/08/2018 22:57 Ice Warning 2.5F - 20F 32F 5 0% - - 100% 0 mhos 1 - None None - -
02/08/2018 22:47 Ice Warning 2.7F - 20F 32F 5 0% - - 100% 0 mhos 1 - None None - -
02/08/2018 22:46 Ice Warning 2.7F - 20F 32F 5 0% - - 100% 0 mhos 1 - None None - -
02/08/2018 22:37 Ice Warning 3.0F - 20F 32F 5 0% - - 100% 0 mhos 1 - None None - -
02/08/2018 22:31 Ice Warning 3.2F - 20F 32F 5 0% - - 100% 0 mhos 1 - None None - -
02/08/2018 22:27 Ice Warning 3.2F - 20F 32F 5 0% - - 100% 0 mhos 1 - None None - -
02/08/2018 22:17 Ice Warning 3.4F - 20F 32F 5 0% - - 100% 0 mhos 1 - None None - -
02/08/2018 22:15 Ice Warning 3.4F - 20F 32F 5 0% - - 100% 0 mhos 1 - None None - -
02/08/2018 22:07 Ice Warning 3.2F - 20F 32F 5 0% - - 100% 0 mhos 1 - None None - -
02/08/2018 22:01 Ice Warning 3.0F - 20F 32F 5 0% - - 100% 0 mhos 1 - None None - -
02/08/2018 21:57 Ice Warning 3.2F - 20F 32F 5 0% - - 100% 0 mhos 1 - None None - -
02/08/2018 21:47 Ice Warning 3.2F - 20F 32F 5 0% - - 100% 0 mhos 1 - None None - -
02/08/2018 21:46 Ice Warning 3.2F - 20F 32F 5 0% - - 100% 0 mhos 1 - None None - -
02/08/2018 21:37 Ice Warning 3.4F - 20F 32F 5 0% - - 100% 0 mhos 1 - None None - -
02/08/2018 21:31 Ice Warning 3.7F - 20F 32F 5 0% - - 100% 0 mhos 1 - None None - -
Date/Time
(MDT)
Sf
Temp Chem Water Layer Surface Precipitation
Sfc Pvt Sub Frz Factor Pct Dpth DpthThk IcePct Cond Salin FI Type Intens Accum Rate
02/08/2018 21:27 Ice Warning 3.7F - 20F 32F 5 0% - - 100% 0 mhos 1 - None None - -
02/08/2018 21:17 Ice Warning 3.9F - 20F 32F 5 0% - - 100% 0 mhos 1 - None None - -
02/08/2018 21:15 Ice Warning 4.1F - 20F 32F 5 0% - - 100% 0 mhos 1 - None None - -
02/08/2018 21:07 Ice Warning 4.1F - 20F 32F 5 0% - - 100% 0 mhos 1 - None None - -
02/08/2018 21:00 Ice Warning 4.3F - 20F 32F 5 0% - - 100% 0 mhos 1 - None None - -
02/08/2018 20:57 Ice Warning 4.5F - 20F 32F 5 0% - - 100% 0 mhos 1 - None None - -
02/08/2018 20:47 Ice Warning 4.8F - 20F 32F 5 0% - - 100% 0 mhos 1 - None None - -
02/08/2018 20:46 Ice Warning 5.0F - 20F 32F 5 0% - - 100% 0 mhos 1 - None None - -
02/08/2018 20:36 Ice Warning 5.4F - 20F 32F 5 0% - - 100% 0 mhos 1 - None None - -
02/08/2018 20:31 Ice Warning 5.5F - 20F 32F 5 0% - - 100% 0 mhos 1 - None None - -
02/08/2018 20:26 Ice Warning 5.7F - 20F 32F 5 0% - - 100% 0 mhos 1 - Yes - - -
02/08/2018 20:16 Ice Warning 5.7F - 20F 32F 5 0% - - 100% 0 mhos 1 - Yes - - -
02/08/2018 20:15 Ice Warning 5.7F - 20F 32F 5 0% - - 100% 0 mhos 1 - Yes - - -
02/08/2018 20:06 Ice Warning 5.5F - 20F 32F 5 0% - - 100% 0 mhos 1 - Yes - - -
02/08/2018 20:00 Ice Warning 5.5F - 20F 32F 5 0% - - 100% 0 mhos 1 - None None - -
Date/Time
(MDT)
Sf
Temp Chem Water Layer Surface Precipitation
Sfc Pvt Sub Frz Factor Pct Dpth DpthThk IcePct Cond Salin FI Type Intens Accum Rate
02/08/2018 19:56 Ice Warning 5.5F - 20F 32F 5 0% - - 100% 0 mhos 1 - None None - -
02/08/2018 19:46 Ice Warning 5.7F - 20F 32F 5 0% - - 100% 0 mhos 1 - None None - -
02/08/2018 19:46 Ice Warning 5.7F - 20F 32F 5 0% - - 100% 0 mhos 1 - None None - -
02/08/2018 19:36 Ice Warning 6.1F - 20F 32F 5 0% - - 100% 0 mhos 1 - None None - -
02/08/2018 19:30 Ice Warning 6.3F - 20F 32F 5 0% - - 100% 0 mhos 1 - None None - -
02/08/2018 19:26 Ice Warning 6.6F - 20F 32F 5 0% - - 100% 0 mhos 1 - None None - -
02/08/2018 19:16 Ice Warning 6.8F - 20F 32F 5 0% - - 100% 0 mhos 1 - None None - -
02/08/2018 19:15 Ice Warning 7.0F - 20F 32F 5 0% - - 100% 0 mhos 1 - None None - -
02/08/2018 19:06 Ice Warning 7.5F - 20F 32F 5 0% - - 100% 0 mhos 1 - None None - -
02/08/2018 19:00 Ice Warning 7.5F - 20F 32F 5 0% - - 100% 0 mhos 1 - None None - -
02/08/2018 18:56 Ice Warning 7.7F - 20F 32F 5 0% - - 100% 0 mhos 1 - Yes - - -
02/08/2018 18:46 Ice Warning 8.1F - 20F 32F 5 0% - - 100% 0 mhos 1 - None None - -
02/08/2018 18:45 Ice Warning 8.1F - 20F 32F 5 0% - - 100% 0 mhos 1 - Yes - - -
02/08/2018 18:36 Ice Warning 8.1F - 20F 32F 5 0% - - 100% 0 mhos 1 - Yes - - -
Change End Date:

Copyright © 1998-2015 Vaisala, Inc.
All Rights Reserved
Send comments about the data to:
SCAN Web ® is a registered trademark of Vaisala, Inc.
SCAN Web Version 6.0